Lapse_Rate
0.3 0.6 1.0 1.3 1.5 1.8 2.4 3.0 3.8 4.7 5.5 3.2 4.0 4.2 5.2 6.2 6.7 8.1 8.1 8.4 9.4 9.6 9.6 9.5 9.5 9.5 9.5 9.5 9.5 9.3 9.3 9.2 9.2 9.3 9.3 9.2 9.2 9.4
0.8 1.6 1.8 1.9 2.2 2.2 2.5 2.9 3.3 4.1 5.4 4.6 4.9 4.3 5.5 6.6 7.5 8.4 8.2 8.6 8.5 9.1 9.5 9.5 9.5 9.5 9.5 9.5 9.4 9.5 9.2 9.3 9.2 9.1 9.1 9.2 9.3 9.2
2.0 2.4 2.8 2.7 2.3 2.2 2.3 2.9 3.6 3.8 4.9 5.4 5.3 5.6 5.4 5.4 6.6 7.4 7.3 7.5 7.7 8.5 9.5 9.5 9.5 9.5 9.5 9.5 9.4 9.4 9.3 9.3 9.3 9.1 9.1 9.0 9.1 9.1
2.9 2.9 3.3 4.5 3.1 3.0 3.0 3.5 3.6 3.8 4.4 5.9 6.0 6.3 6.2 6.3 6.9 6.7 7.6 8.1 8.2 8.2 9.5 9.6 9.6 9.5 9.5 9.5 9.3 9.1 9.5 9.4 9.3 9.3 9.2 9.4 9.3 9.1
3.1 3.3 3.3 3.4 3.2 3.3 3.7 3.7 4.2 6.4 4.9 5.8 6.7 6.9 6.6 6.6 7.0 7.1 7.4 7.5 7.9 8.9 9.4 9.3 9.3 9.1 9.3 9.4 9.4 9.4 9.4 9.4 9.4 9.4 9.3 9.3 9.4 9.3
2.9 3.1 3.3 3.7 4.1 4.3 4.8 5.0 6.0 5.1 5.2 5.8 6.3 6.1 6.8 8.2 7.3 7.3 7.5 7.7 7.4 8.1 7.9 7.7 8.6 8.3 8.5 8.2 8.3 8.0 8.1 9.2 9.3 9.3 9.2 9.1 9.1 9.2
2.3 2.9 3.8 5.0 7.8 7.8 7.9 5.9 5.5 5.3 5.0 4.9 5.8 6.4 8.1 7.9 7.2 7.6 7.6 7.3 6.8 6.6 6.9 7.2 6.8 6.4 5.7 6.1 6.5 6.4 7.1 9.3 9.3 9.2 9.1 9.2 9.1 9.1
1.5 2.4 3.2 5.5 6.4 9.0 9.6 9.7 9.2 7.5 4.6 4.8 6.7 7.6 7.2 7.1 7.6 7.8 7.2 6.4 6.9 7.0 7.2 7.6 6.1 5.7 5.3 5.6 6.6 8.4 8.8 9.2 9.2 9.1 8.9 8.8 9.1 8.9
2.1 2.8 3.6 6.3 6.3 5.8 7.5 9.3 8.9 9.4 9.2 8.0 6.9 6.7 7.1 7.6 6.9 5.8 6.1 6.7 7.2 6.7 6.9 7.7 5.7 6.2 5.8 6.8 6.8 6.4 6.9 8.4 8.9 9.2 8.9 9.1 9.2 9.3
2.8 3.2 4.0 4.6 5.2 8.0 7.2 5.8 6.1 5.6 5.7 7.0 7.5 7.8 7.7 7.8 7.9 7.7 7.5 7.2 6.7 6.0 6.5 7.3 6.9 6.7 6.2 5.7 5.8 5.9 6.4 7.2 9.3 9.4 9.3 9.2 9.1 9.3
3.3 4.1 5.5 5.5 8.2 9.6 8.0 5.6 6.0 6.4 7.9 8.6 9.1 9.2 9.3 9.2 8.8 8.5 6.4 6.6 6.1 6.2 5.7 7.6 6.2 6.4 5.9 5.0 4.9 6.3 7.3 7.3 6.9 6.7 6.9 8.4 8.7 9.2
3.3 4.2 7.0 8.5 9.6 9.5 8.5 7.6 6.8 6.4 6.4 6.1 6.5 5.9 6.1 5.0 6.8 6.2 5.9 6.5 6.5 7.0 5.3 6.4 6.3 6.8 6.8 5.0 4.6 5.0 3.6 4.9 5.6 6.2 6.2 6.2 6.7 7.7
4.8 5.0 5.2 8.4 9.4 9.4 9.4 7.2 7.5 8.7 7.8 5.5 5.8 5.3 5.0 4.8 4.9 4.8 5.1 5.8 6.2 6.3 4.6 6.9 6.6 6.5 7.1 6.8 6.2 4.9 4.2 3.6 4.0 3.8 4.4 5.0 6.0 7.7
5.7 5.6 6.1 9.0 9.3 9.5 9.0 9.5 9.5 8.9 6.0 5.7 5.2 4.6 4.5 4.2 4.2 4.1 4.3 4.2 4.2 4.5 3.9 4.4 5.6 5.9 6.4 6.5 6.3 4.8 4.3 4.1 4.0 3.3 3.1 4.4 5.5 6.4
6.6 8.4 9.2 9.3 8.2 6.6 7.5 8.3 7.7 5.3 5.3 4.8 4.8 4.4 4.2 3.9 3.6 3.5 3.2 3.0 2.5 2.6 3.3 3.7 4.6 4.8 5.5 6.0 5.9 5.3 5.4 4.7 4.2 3.9 3.5 4.8 5.3 6.3
7.7 6.0 7.7 7.1 6.9 6.7 5.7 5.4 5.0 5.1 5.5 5.7 4.7 4.3 3.9 3.9 3.6 3.6 3.3 3.3 3.4 2.8 3.5 3.6 3.6 4.5 5.2 5.4 5.9 6.0 5.2 6.6 5.0 5.1 5.9 6.2 6.4 6.8
8.2 5.2 4.7 4.5 4.3 4.7 4.8 4.8 4.7 4.7 4.3 4.0 3.6 3.9 3.9 4.0 3.7 3.6 3.3 3.8 4.8 4.3 3.3 3.2 3.7 4.2 4.5 5.1 5.6 5.1 5.0 5.2 5.2 5.9 6.4 6.7 6.7 6.9
5.3 5.0 4.5 4.7 4.7 4.6 4.4 4.0 3.9 3.9 3.5 3.4 3.1 3.2 3.4 3.4 3.6 3.7 4.6 4.3 4.2 4.0 4.0 3.7 4.0 4.4 4.9 6.5 7.3 6.0 5.7 6.1 5.7 6.0 7.1 6.8 6.9 7.5
4.8 4.2 4.2 4.3 4.1 4.0 3.8 3.4 2.9 3.0 2.9 2.8 2.8 3.1 3.2 3.6 4.8 4.0 3.8 4.1 4.2 4.2 3.7 4.0 5.4 6.0 6.4 6.8 7.4 8.9 7.2 5.9 6.1 6.2 6.2 6.8 6.7 6.2
4.0 3.8 3.9 3.8 3.8 3.5 3.1 3.0 2.8 2.7 2.5 2.5 3.0 3.6 3.7 3.9 4.0 4.2 4.0 4.0 4.2 4.8 5.4 4.8 5.3 5.7 6.4 6.8 7.0 5.1 5.8 5.9 6.1 6.1 6.5 7.1 7.2 7.2
4.0 3.9 3.9 3.4 3.2 3.0 2.9 2.7 2.5 2.4 3.2 3.1 2.4 2.9 3.3 3.8 3.7 3.8 3.8 5.1 6.0 5.0 4.9 5.5 5.8 7.4 7.0 6.4 6.5 5.6 5.2 6.1 6.7 6.3 6.2 6.3 6.5 6.8
4.2 3.6 3.3 3.1 2.9 2.6 2.4 2.4 2.1 1.9 1.9 2.0 2.3 2.8 3.2 3.6 3.7 3.8 4.1 4.4 4.7 4.8 5.2 5.5 5.7 5.8 5.7 6.0 6.0 5.4 5.9 5.4 5.6 5.8 6.2 7.0 6.0 6.6
3.5 3.4 3.2 3.0 2.8 2.5 2.4 2.2 2.0 1.8 1.9 2.1 2.4 2.8 3.2 3.7 4.2 4.3 4.5 4.5 4.9 5.2 6.2 6.1 5.7 5.7 5.4 5.6 6.5 6.3 5.8 5.6 5.5 5.8 5.8 7.0 7.4 7.4
Wind_Speed
3 3 1 1 1 1 1 2 3 3 5 3 2 5 11 15 15 18 15 23 28 30 31 32 30 32 33 33 33 29 31 30 32 33 33 34 34 34
2 3 1 1 1 1 1 2 2 3 4 2 3 4 10 13 16 20 20 28 27 30 30 32 32 33 32 29 32 34 31 32 33 33 34 34 35 34
2 2 2 2 1 1 1 2 3 2 6 4 3 4 4 7 11 16 20 21 21 27 31 31 31 30 34 34 32 33 32 33 34 33 33 33 33 34
1 1 3 2 2 2 2 4 3 3 3 12 6 6 7 7 9 11 13 19 19 25 29 28 34 31 34 34 33 31 33 33 32 32 33 33 33 32
2 3 4 3 4 3 3 4 3 5 4 6 9 6 5 7 10 9 10 10 17 23 27 29 30 31 31 32 33 32 32 33 32 31 31 32 32 32
3 3 4 4 4 5 5 6 5 4 4 6 7 6 7 10 7 9 10 8 10 14 22 27 28 27 30 31 32 32 31 30 30 30 30 31 31 31
5 5 4 5 10 9 4 4 4 4 4 4 5 7 10 10 9 9 10 11 13 10 9 8 6 10 17 24 26 29 29 31 32 31 30 31 31 30
5 5 5 8 7 12 15 16 13 7 3 3 7 10 11 9 9 9 10 11 12 8 3 10 9 11 10 15 25 31 33 33 31 30 30 29 28 27
5 5 5 5 9 6 11 16 15 15 17 11 11 10 11 11 10 10 11 10 11 12 10 12 11 11 10 15 28 33 33 32 30 27 25 25 25 25
5 5 5 6 7 10 6 5 6 6 6 7 9 10 10 11 12 11 12 10 11 11 9 12 10 12 11 10 30 33 30 27 25 26 27 27 24 25
5 5 6 6 13 18 10 6 6 6 12 21 23 23 24 27 20 9 8 9 11 12 10 9 8 10 12 12 12 22 21 25 28 26 26 25 26 26
5 6 12 13 19 20 12 8 7 7 9 8 6 10 15 13 20 9 7 9 10 10 5 3 9 7 6 4 4 8 9 20 26 26 25 25 26 11
3 4 4 18 20 22 21 6 9 13 10 6 8 8 8 8 8 7 7 7 10 10 15 10 8 10 7 10 7 9 11 12 10 14 24 26 24 19
5 4 7 18 21 21 15 18 19 15 7 7 8 8 8 9 8 9 11 10 12 14 16 13 8 10 11 13 14 8 10 11 10 10 10 17 24 25
5 13 19 19 18 12 16 18 15 6 6 7 8 9 8 8 11 10 11 12 11 14 16 13 11 12 10 12 13 13 14 10 11 11 9 10 12 11
12 5 11 12 13 13 10 8 5 5 7 7 8 9 9 9 9 8 9 9 9 11 10 12 11 11 11 11 11 14 13 10 11 11 12 12 11 11
10 3 4 5 6 6 6 6 6 7 7 7 8 9 10 9 9 9 8 9 9 11 12 11 10 12 12 15 14 13 13 13 12 13 11 13 12 11
4 5 6 5 6 7 8 8 7 10 7 8 9 9 9 10 10 10 8 9 10 11 11 11 11 11 10 11 20 13 13 12 12 12 12 11 14 11
3 4 5 6 6 7 7 7 9 9 9 8 9 9 10 9 13 10 9 9 10 10 11 11 10 10 12 14 11 14 11 11 12 13 11 11 12 14
3 5 6 6 7 7 7 8 9 9 9 9 9 9 10 9 10 10 9 10 10 11 11 10 9 9 10 13 15 16 17 10 10 12 12 11 13 25
5 6 6 6 7 7 8 8 9 9 10 9 10 9 10 9 10 10 10 19 18 10 11 11 11 25 12 11 10 13 12 18 16 12 12 11 11 10
6 6 7 7 7 7 8 8 9 10 10 9 9 9 9 9 10 10 10 10 10 10 11 11 12 10 10 9 13 16 11 12 16 19 20 17 8 7
6 7 8 8 7 7 8 8 9 9 10 9 10 10 10 9 10 9 10 10 10 10 10 12 11 10 10 9 14 11 17 15 11 12 12 18 19 20
Wind_Direction
137 130 142 203 112 142 150 163 176 293 299 285 286 315 318 311 305 306 304 305 301 302 302 300 298 299 298 297 296 295 289 291 287 283 281 280 279 277
139 143 160 220 178 216 236 228 197 217 266 225 288 291 301 307 307 311 306 304 300 300 301 300 300 298 294 299 294 293 295 290 288 286 283 282 279 279
116 191 236 226 254 291 275 262 259 232 276 293 274 291 289 288 298 296 295 294 293 299 303 302 298 302 304 298 300 296 298 293 287 286 285 283 281 279
258 276 266 269 273 258 251 266 243 258 255 298 299 293 282 286 288 289 287 288 290 292 297 300 302 301 299 298 294 296 293 290 290 292 290 286 281 279
290 270 271 261 276 268 257 258 244 269 262 277 292 294 290 296 291 285 284 287 284 289 297 298 298 299 296 299 299 297 297 295 292 289 285 284 281 278
350 331 292 272 265 264 248 251 260 258 259 270 284 289 290 301 290 297 300 292 293 293 292 289 292 291 297 297 296 294 293 293 290 286 284 282 281 278
343 327 306 279 296 299 291 258 250 257 261 269 272 292 302 308 302 300 294 301 295 294 283 281 277 286 286 289 287 291 290 289 292 290 287 284 282 278
318 311 302 300 288 297 305 303 298 290 266 251 294 297 297 296 299 297 294 299 300 294 273 297 290 288 285 283 285 289 293 294 290 291 287 282 282 280
317 312 317 319 325 299 293 295 298 297 301 303 298 289 289 293 289 290 283 282 289 297 298 294 293 287 286 284 289 290 291 293 293 290 286 284 286 287
325 329 326 308 303 310 286 267 265 266 269 279 274 284 281 287 290 296 299 297 291 292 291 288 296 288 289 286 286 288 289 289 291 293 296 291 286 284
314 309 309 304 307 311 310 281 273 276 283 294 299 301 304 305 303 306 297 301 295 296 298 290 291 292 291 283 271 276 284 292 294 292 290 287 287 283
287 287 306 317 315 311 312 313 312 295 286 290 301 301 297 283 298 293 284 286 289 299 285 292 298 305 301 229 260 284 276 282 288 289 288 287 286 282
295 302 298 315 311 320 320 325 299 308 332 320 306 302 300 295 293 288 282 276 286 281 284 298 295 293 274 295 286 287 285 284 281 284 284 283 281 276
310 289 286 305 326 322 322 315 317 332 325 311 305 301 299 297 296 293 287 276 266 267 280 282 275 283 285 287 291 289 286 286 280 276 276 277 281 283
300 304 327 327 325 327 320 323 328 319 308 305 300 297 295 292 294 291 289 280 272 271 274 269 265 274 270 275 281 287 289 293 283 274 273 274 280 277
294 304 331 334 327 320 322 314 301 302 299 299 295 294 296 298 296 294 290 298 294 293 286 263 260 260 270 266 272 279 282 279 283 281 279 276 275 272
343 350 332 329 325 322 318 309 309 307 305 303 298 301 300 299 295 298 291 290 283 294 297 297 281 263 259 266 277 274 276 278 277 277 278 279 277 277
6 333 326 320 319 318 315 313 307 308 302 302 299 295 296 297 297 296 294 293 289 292 292 292 294 294 286 263 243 266 276 275 278 278 279 277 281 276
335 319 312 313 313 308 304 303 305 306 303 297 294 294 293 291 301 299 295 291 291 291 289 288 290 294 299 299 295 264 279 280 284 285 275 272 276 280
312 305 309 311 310 304 303 302 303 304 304 299 296 298 297 293 296 295 295 294 293 292 296 297 291 286 286 294 302 301 281 266 275 280 282 280 274 276
318 312 306 306 302 301 302 301 299 301 303 305 299 295 296 297 294 292 291 298 303 299 296 298 295 294 292 291 290 294 297 287 276 280 288 286 288 287
311 308 306 303 300 299 299 301 302 303 303 299 296 295 296 295 292 293 294 296 297 293 291 292 299 303 298 294 292 296 299 306 304 299 293 287 290 288
310 306 304 302 299 298 298 298 299 297 295 295 296 297 297 298 297 292 290 290 289 293 298 311 311 307 300 298 300 303 306 309 312 317 313 305 297 291